{"data":{"norad_id":53594,"intl_designator":"2022-104G","name":"STARLINK-4681","alt_names":[],"object_type":"PAYLOAD","status":"ACTIVE","operator":null,"country":"US","launch_date":"2022-08-28","launch_site_code":"AFETR","launch_vehicle":null,"mission":null,"orbit_class":"UNKNOWN","rcs_meters":null,"size_class":null,"mass_kg":null,"dimensions":null,"purposes":["comms"],"wikipedia_slug":null,"has_3d_model":false,"image_url":null,"decayed_at":null,"tle_current":{"epoch":"2026-07-02T19:43:38.468928Z","epoch_age_seconds":6962448,"freshness":"OLD","line1":"1 53594U 22104G   26183.82197302  .10212467  12579-4  21336-3 0  9996","line2":"2 53594  53.2009  44.5146 0008853 292.8077  67.2039 16.46239423214060","mean_motion":16.46239423,"eccentricity":0.0008853,"inclination_deg":53.2009,"raan_deg":44.5146,"arg_perigee_deg":292.8077,"mean_anomaly_deg":67.2039,"bstar":0.00021336,"rev_number":21406,"period_min":87.472088195764,"perigee_km":143.47852256622,"apogee_km":155.03592678042,"semimajor_km":6527.3942246733,"source":"CELESTRAK","updated_at":"2026-07-03T09:00:35.523576Z"}}}